Regional Weather Roundup
Issued by NWS Goodland, KS

Home | Current Version | Previous Version | Graphics & Text | Print | Product List | Glossary On
Versions: 1 2 3 4 5 6 7 8 9 10 11 12 13 14 15 16 17 18 19 20 21 22 23 24 25 26 27 28 29 30 31 32 33 34 35 36 37 38 39 40 41 42 43 44 45 46 47 48 49 50
000
ASUS43 KGLD 282059
RWRGLD

GOODLAND FORECAST AREA HOURLY WEATHER ROUNDUP
NATIONAL WEATHER SERVICE GOODLAND KS
300 PM MDT FRI AUG 28 2015

...OFFICIAL OBSERVATIONS...

CITY           SKY/WX    TMP DP  RH WIND       PRES   REMARKS
GOODLAND KS    MOSUNNY   91  46  21 N13G25    30.04F
HILL CITY KS   SUNNY     90  60  36 N15G29    29.95F
IMPERIAL NEB   SUNNY     89  53  29 N13       30.03S
MCCOOK NEB     MOSUNNY   87  60  40 N12G21    29.99S
AKRON CO       SUNNY     86  38  18 N17G28    30.15S
BURLINGTON CO  MOSUNNY   87  45  23 N13G22    30.09F
LIMON CO       SUNNY     81  45  28 N16G24    30.21F
$$

...UNOFFICIAL OBSERVATIONS...

CITY           SKY/WX    TMP DP  RH WIND       PRES   REMARKS
COLBY KS       SUNNY     90  57  33 N12G17    30.02S
GOVE KS          N/A     91  32  12 MISG        N/A
LENORA KS        N/A     83  32  16 MISG        N/A
NORTON KS      MOSUNNY   82  57  42 N12G21    29.96F
SHARON SPRINGS   N/A     90  54  29 NE8G22      N/A
TRENTON NEB      N/A     85  32  15 NE14        N/A
YUMA CO          N/A     88  46  22 NE8G16      N/A
$$


USA.gov is the U.S. government's official web portal to all federal, state and local government web resources and services.